Regional Weather Roundup
Issued by NWS

Home | Current Version | Previous Version | Graphics & Text | Print | Product List | Glossary On
Versions: 1 2 3 4 5 6 7 8 9 10 11 12 13 14 15 16 17 18 19 20 21 22 23 24 25 26 27 28 29 30 31 32 33 34 35 36 37 38 39 40 41 42 43 44 45 46 47 48 49 50
000
ASUS43 KMKX 220011
RWRWI

WISCONSIN REGIONAL WEATHER ROUNDUP
NATIONAL WEATHER SERVICE MILWAUKEE/SULLIVAN WI
700 PM CDT TUE OCT 21 2014

NOTE: "FAIR" INDICATES FEW OR NO CLOUDS BELOW 12,000 FEET WITH NO
SIGNIFICANT WEATHER AND/OR OBSTRUCTIONS TO VISIBILITY.

WIZ001-002-006>008-014>016-023>028-220100-
NORTHWEST WISCONSIN

CITY           SKY/WX    TMP DP  RH WIND       PRES   REMARKS
SUPERIOR ARPT  CLEAR     43  39  85 E9        30.19S
6HR MIN TEMP:  43; 6HR MAX TEMP:  49;

ASHLAND        CLEAR     37  35  92 NE6       30.23F WCI  32
6HR MIN TEMP:  37; 6HR MAX TEMP:  49;

HAYWARD        CLEAR     45  35  68 E3        30.19S
6HR MIN TEMP:  45; 6HR MAX TEMP:  52;

SIREN          CLEAR     49  36  61 SE3       30.18R
6HR MIN TEMP:  49; 6HR MAX TEMP:  56;

CUMBERLAND     CLEAR     45  34  65 SE5       30.18S
RICE LAKE      CLEAR     47  35  63 SE5       30.20S
6HR MIN TEMP:  47; 6HR MAX TEMP:  54;

CHETEK         CLEAR     47  37  66 E5        30.20R
6HR MIN TEMP:  47; 6HR MAX TEMP:  54;

LADYSMITH      CLEAR     47  36  63 S5        30.22R
6HR MIN TEMP:  47; 6HR MAX TEMP:  55;

EAU CLAIRE     CLEAR     49  35  58 SE6       30.19S
6HR MIN TEMP:  48; 6HR MAX TEMP:  56;

MENOMONIE      CLEAR     47  36  66 E5        30.19S
6HR MIN TEMP:  47; 6HR MAX TEMP:  56;

NEW RICHMOND   CLEAR     47  36  66 SE5       30.18R
6HR MIN TEMP:  47; 6HR MAX TEMP:  55;

OSCEOLA        CLEAR     46  37  72 SE6       30.19S
6HR MIN TEMP:  46; 6HR MAX TEMP:  56;

$$

WIZ003>005-009-010-017-018-220100-
NORTH CENTRAL WISCONSIN

CITY           SKY/WX    TMP DP  RH WIND       PRES   REMARKS
MANITOWISH WTR CLEAR     35  35  99 CALM      30.22S
6HR MIN TEMP:  35; 6HR MAX TEMP:  46;

ARBOR VITAE    CLEAR     39  35  84 CALM      30.23R
6HR MIN TEMP:  39; 6HR MAX TEMP:  49;

WOODRUFF       CLEAR     39  35  84 CALM      30.23R
6HR MIN TEMP:  39; 6HR MAX TEMP:  49;

RHINELANDER    CLEAR     39  33  79 CALM      30.23S
6HR MIN TEMP:  38; 6HR MAX TEMP:  48;

EAGLE RIVER    CLEAR     35  34  96 CALM      30.22S
6HR MIN TEMP:  35; 6HR MAX TEMP:  48;

LAND O LAKES   CLEAR     34  32  92 CALM      30.24R
6HR MIN TEMP:  34; 6HR MAX TEMP:  50;

PHILLIPS       CLEAR     40  34  78 E3        30.21S
6HR MIN TEMP:  40; 6HR MAX TEMP:  48;

TOMAHAWK       CLEAR     36  33  88 CALM      30.23S
6HR MIN TEMP:  36; 6HR MAX TEMP:  49;

MEDFORD        CLEAR     43  34  71 SE5       30.21S
6HR MIN TEMP:  43; 6HR MAX TEMP:  49;

MERRILL        CLEAR     40  35  81 CALM      30.23R
6HR MIN TEMP:  40; 6HR MAX TEMP:  52;

$$

WIZ029-030-035-036-043>047-220100-
CENTRAL WISCONSIN

CITY           SKY/WX    TMP DP  RH WIND       PRES   REMARKS
WAUSAU         CLEAR     45  35  68 E3        30.22R
6HR MIN TEMP:  45; 6HR MAX TEMP:  52;

MOSINEE        CLEAR     46  34  61 CALM      30.23S
MARSHFIELD     CLEAR     46  35  65 SE3       30.22S
6HR MIN TEMP:  45; 6HR MAX TEMP:  51;

STEVENS POINT  CLEAR     40  35  81 CALM      30.23S
6HR MIN TEMP:  39; 6HR MAX TEMP:  50; 6HR PCP:  0.03;

WAUPACA        CLEAR     44  35  69 CALM      30.24S
6HR MIN TEMP:  44; 6HR MAX TEMP:  55;

WAUTOMA        CLOUDY    40  35  82 CALM      30.25R
6HR MIN TEMP:  40; 6HR MAX TEMP:  52;

WISC RAPIDS    CLEAR     40  36  86 CALM      30.24S
6HR MIN TEMP:  40; 6HR MAX TEMP:  52;

CAMP DOUGLAS   CLEAR     37  37 100 SE3       30.23R
$$

WIZ011>013-019>022-031-037>040-048>050-220100-
NORTHEAST WISCONSIN

CITY           SKY/WX    TMP DP  RH WIND       PRES   REMARKS
ANTIGO         CLEAR     42  34  74 SE5       30.23R
6HR MIN TEMP:  42; 6HR MAX TEMP:  50;

SHAWANO        CLEAR     45  35  66 CALM      30.25R
6HR MIN TEMP:  45; 6HR MAX TEMP:  55;

OCONTO         CLEAR     38  36  91 CALM      30.26R
6HR MIN TEMP:  38; 6HR MAX TEMP:  51;

STURGEON BAY   CLEAR     45  28  53 NE5       30.26R
6HR MIN TEMP:  45; 6HR MAX TEMP:  50;

GREEN BAY      CLEAR     42  36  79 N3        30.25R
6HR MIN TEMP:  42; 6HR MAX TEMP:  51;

MANITOWOC      CLEAR     44  38  79 CALM      30.26R
6HR MIN TEMP:  44; 6HR MAX TEMP:  51;

APPLETON       CLEAR     46  30  53 VRB5      30.25R
CLINTONVILLE   CLEAR     43  34  70 CALM      30.24S
OSHKOSH        CLEAR     46  31  55 E5        30.24S
6HR MIN TEMP:  46; 6HR MAX TEMP:  50;

$$

WIZ032>034-041-042-053>061-220100-
SOUTHWEST WISCONSIN

CITY           SKY/WX    TMP DP  RH WIND       PRES   REMARKS
LA CROSSE      CLEAR     51  36  56 E5        30.20R
6HR MIN TEMP:  51; 6HR MAX TEMP:  59;

SPARTA         CLEAR     44  35  71 E5        30.23R
6HR MIN TEMP:  44; 6HR MAX TEMP:  56;

VIROQUA        CLEAR     45  36  70 SE6       30.21R
6HR MIN TEMP:  45; 6HR MAX TEMP:  56;

BOSCOBEL       CLEAR     49  36  61 E6        30.23R
6HR MIN TEMP:  49; 6HR MAX TEMP:  59;

PRAIRIE DU CHI CLEAR     49  36  61 E6        30.21R
6HR MIN TEMP:  49; 6HR MAX TEMP:  57;

PLATTEVILLE    CLEAR     44  37  76 E9        30.23S
6HR MIN TEMP:  44; 6HR MAX TEMP:  55;

$$

WIZ056-057-062-063-064-067-068-220100-
SOUTH CENTRAL WISCONSIN

CITY           SKY/WX    TMP DP  RH WIND       PRES   REMARKS
REEDSBURG      CLEAR     43  36  74 CALM      30.24R
6HR MIN TEMP:  43; 6HR MAX TEMP:  50;

BARABOO/DELLS  CLEAR     40  34  78 SE3       30.24S
6HR MIN TEMP:  40; 6HR MAX TEMP:  50;

LONE ROCK      CLEAR     45  34  65 E5        30.24R
6HR MIN TEMP:  45; 6HR MAX TEMP:  57;

MINERAL POINT  CLEAR     45  36  70 E3        30.23S
MADISON        CLEAR     41  35  79 CALM      30.25R
6HR MIN TEMP:  41; 6HR MAX TEMP:  49;

MIDDLETON      CLEAR     43  36  74 CALM      30.25S
6HR MIN TEMP:  43; 6HR MAX TEMP:  52;

WATERTOWN      CLEAR     40  36  87 CALM      30.24R
6HR MIN TEMP:  38; 6HR MAX TEMP:  47;

MONROE         MOCLDY    43  37  81 NE5       30.23S
JANESVILLE     PTCLDY    46  36  66 NE5       30.23S
$$

WIZ051-052-058>065-066-070>072-220100-
SOUTHEAST WISCONSIN

CITY           SKY/WX    TMP DP  RH WIND       PRES   REMARKS
MILWAUKEE      PTCLDY    46  35  65 N10       30.24S
6HR MIN TEMP:  45; 6HR MAX TEMP:  49;

WAUKESHA       CLEAR     39  36  87 E5        30.25R
MILWAUKEE/TIMM CLEAR     45  37  76 NE7       30.24S
RACINE         CLEAR     46  35  65 N13       30.25R
6HR MIN TEMP:  45; 6HR MAX TEMP:  49;

BURLINGTON     CLEAR     36  33  89 CALM      30.25R
6HR MIN TEMP:  36; 6HR MAX TEMP:  48;

KENOSHA        CLEAR     43  37  79 N5        30.24R
6HR MIN TEMP:  43; 6HR MAX TEMP:  50;

FOND DU LAC    CLEAR     43  33  68 NE5       30.25R
6HR MIN TEMP:  43; 6HR MAX TEMP:  50;

SHEBOYGAN      CLEAR     39  35  86 NE5       30.25R
6HR MIN TEMP:  38; 6HR MAX TEMP:  51;

WEST BEND      CLEAR     41  34  75 E3        30.24R
JUNEAU         CLEAR     41  35  80 CALM      30.25S
6HR MIN TEMP:  41; 6HR MAX TEMP:  47;

$$

LSZ147-162-220100-
LAKE SUPERIOR

STATION/POSITION TIME  TEMP    WIND        PRES    WAVE
                       AIR SEA DIR/SP/G            HT/PER
                 (UTC) (F)     (DEG/KT/KT) (MB)    (FT/S)
W MID LAKE BUOY  2350   42 46   80/ 14/ 16 1024.8F   2/ 5
DEVILS ISLAND    0000   44      90/ 16/ 18 1024.3F
PORT WING        2340   44      80/  4/  9 1023.0F
SAXON HARBOR     2340   41        CALM     1023.4F
$$

LMZ867-665-643>646-220100-
LAKE MICHIGAN

STATION/POSITION TIME  TEMP    WIND        PRES    WAVE



USA.gov is the U.S. government's official web portal to all federal, state and local government web resources and services.